Time,TemperatureF,DewpointF,PressureIn,WindDirection,WindDirectionDegrees,WindSpeedMPH,WindSpeedGustMPH,Humidity,HourlyPrecipIn,Conditions,Clouds,dailyrainin,SoftwareType,DateUTC
2013-03-24 00:01:00,36.0,23.0,29.76,East,90,2.0,3.0,58,0.00,,,0.00,,2013-03-24 07:01:00,
2013-03-24 00:11:00,36.0,23.0,29.76,East,90,2.0,3.0,58,0.00,,,0.00,,2013-03-24 07:11:00,
2013-03-24 00:21:00,36.0,23.0,29.74,East,90,2.0,2.0,59,0.00,,,0.00,,2013-03-24 07:21:00,
2013-03-24 00:31:00,35.0,23.0,29.74,ENE,68,2.0,2.0,62,0.00,,,0.00,,2013-03-24 07:31:00,
2013-03-24 00:42:00,35.0,23.0,29.74,ENE,68,2.0,2.0,62,0.00,,,0.00,,2013-03-24 07:42:00,
2013-03-24 00:52:00,34.0,23.0,29.74,East,90,0.0,2.0,63,0.00,,,0.00,,2013-03-24 07:52:00,
2013-03-24 01:02:00,34.0,23.0,29.74,ESE,113,1.0,1.0,64,0.00,,,0.00,,2013-03-24 08:02:00,
2013-03-24 01:12:00,34.0,23.0,29.74,ESE,113,1.0,1.0,64,0.00,,,0.00,,2013-03-24 08:12:00,
2013-03-24 01:22:00,33.0,23.0,29.73,ESE,113,0.0,1.0,65,0.00,,,0.00,,2013-03-24 08:22:00,
2013-03-24 01:31:00,33.0,23.0,29.73,ESE,113,0.0,1.0,66,0.00,,,0.00,,2013-03-24 08:31:00,
2013-03-24 01:41:00,33.0,23.0,29.73,ESE,113,0.0,1.0,66,0.00,,,0.00,,2013-03-24 08:41:00,
2013-03-24 01:52:00,33.0,23.0,29.74,ESE,113,1.0,1.0,67,0.00,,,0.00,,2013-03-24 08:52:00,
2013-03-24 02:01:00,33.0,23.0,29.73,ESE,113,0.0,1.0,67,0.00,,,0.00,,2013-03-24 09:01:00,
2013-03-24 02:12:00,33.0,23.0,29.73,ESE,113,0.0,1.0,67,0.00,,,0.00,,2013-03-24 09:12:00,
2013-03-24 02:21:00,33.0,23.0,29.74,ESE,113,0.0,1.0,67,0.00,,,0.00,,2013-03-24 09:21:00,
2013-03-24 02:32:00,32.0,22.0,29.74,East,90,1.0,1.0,67,0.00,,,0.00,,2013-03-24 09:32:00,
2013-03-24 02:42:00,32.0,22.0,29.74,East,90,1.0,1.0,67,0.00,,,0.00,,2013-03-24 09:42:00,
2013-03-24 02:52:00,33.0,23.0,29.74,East,90,1.0,1.0,67,0.00,,,0.00,,2013-03-24 09:52:00,
2013-03-24 03:02:00,32.0,22.0,29.74,West,270,0.0,1.0,67,0.00,,,0.00,,2013-03-24 10:02:00,
2013-03-24 03:12:00,32.0,22.0,29.74,West,270,0.0,1.0,67,0.00,,,0.00,,2013-03-24 10:12:00,
2013-03-24 03:22:00,32.0,23.0,29.74,ESE,113,1.0,2.0,68,0.00,,,0.00,,2013-03-24 10:22:00,
2013-03-24 03:32:00,32.0,23.0,29.73,ESE,113,1.0,1.0,69,0.00,,,0.00,,2013-03-24 10:32:00,
2013-03-24 03:41:00,32.0,23.0,29.73,ESE,113,1.0,1.0,69,0.00,,,0.00,,2013-03-24 10:41:00,
2013-03-24 03:52:00,32.0,23.0,29.73,ESE,113,1.0,1.0,69,0.00,,,0.00,,2013-03-24 10:52:00,
2013-03-24 04:02:00,32.0,23.0,29.74,ESE,113,1.0,1.0,70,0.00,,,0.00,,2013-03-24 11:02:00,
2013-03-24 04:11:00,32.0,23.0,29.74,ESE,113,1.0,1.0,70,0.00,,,0.00,,2013-03-24 11:11:00,
2013-03-24 04:21:00,32.0,24.0,29.73,East,90,2.0,2.0,71,0.00,,,0.00,,2013-03-24 11:21:00,
2013-03-24 04:32:00,32.0,24.0,29.72,ESE,113,1.0,2.0,71,0.00,,,0.00,,2013-03-24 11:32:00,
2013-03-24 04:42:00,32.0,24.0,29.72,ESE,113,1.0,2.0,71,0.00,,,0.00,,2013-03-24 11:42:00,
2013-03-24 04:52:00,32.0,24.0,29.72,ESE,113,1.0,2.0,72,0.00,,,0.00,,2013-03-24 11:52:00,
2013-03-24 05:02:00,32.0,24.0,29.73,ENE,68,1.0,1.0,72,0.00,,,0.00,,2013-03-24 12:02:00,
2013-03-24 05:12:00,32.0,24.0,29.73,ENE,68,1.0,1.0,72,0.00,,,0.00,,2013-03-24 12:12:00,
2013-03-24 05:22:00,32.0,24.0,29.73,East,90,1.0,2.0,73,0.00,,,0.00,,2013-03-24 12:22:00,
2013-03-24 05:32:00,32.0,24.0,29.73,East,90,1.0,2.0,73,0.00,,,0.00,,2013-03-24 12:32:00,
2013-03-24 05:42:00,32.0,24.0,29.73,East,90,1.0,2.0,73,0.00,,,0.00,,2013-03-24 12:42:00,
2013-03-24 05:52:00,32.0,24.0,29.73,ESE,113,1.0,2.0,73,0.00,,,0.00,,2013-03-24 12:52:00,
2013-03-24 06:01:00,32.0,24.0,29.71,ESE,113,1.0,2.0,73,0.00,,,0.00,,2013-03-24 13:01:00,
2013-03-24 06:11:00,32.0,24.0,29.71,ESE,113,1.0,2.0,73,0.00,,,0.00,,2013-03-24 13:11:00,
2013-03-24 06:22:00,33.0,26.0,29.71,ESE,113,1.0,1.0,74,0.00,,,0.00,,2013-03-24 13:22:00,
2013-03-24 06:31:00,33.0,26.0,29.71,East,90,2.0,3.0,74,0.00,,,0.00,,2013-03-24 13:31:00,
2013-03-24 06:42:00,33.0,26.0,29.71,East,90,2.0,3.0,74,0.00,,,0.00,,2013-03-24 13:42:00,
2013-03-24 06:52:00,32.0,25.0,29.71,NNW,338,0.0,2.0,74,0.00,,,0.00,,2013-03-24 13:52:00,
2013-03-24 07:01:00,32.0,25.0,29.72,NE,45,0.0,0.0,74,0.00,,,0.00,,2013-03-24 14:01:00,
2013-03-24 07:11:00,32.0,25.0,29.72,NE,45,0.0,0.0,74,0.00,,,0.00,,2013-03-24 14:11:00,
2013-03-24 07:22:00,32.0,25.0,29.72,East,90,1.0,2.0,75,0.00,,,0.00,,2013-03-24 14:22:00,
2013-03-24 07:32:00,32.0,25.0,29.72,ESE,113,1.0,2.0,75,0.00,,,0.00,,2013-03-24 14:32:00,
2013-03-24 07:42:00,32.0,25.0,29.72,ESE,113,1.0,2.0,75,0.00,,,0.00,,2013-03-24 14:42:00,
2013-03-24 07:52:00,32.0,25.0,29.72,ESE,113,1.0,1.0,75,0.00,,,0.00,,2013-03-24 14:52:00,
2013-03-24 08:01:00,33.0,26.0,29.72,East,90,1.0,2.0,75,0.00,,,0.00,,2013-03-24 15:01:00,
2013-03-24 08:12:00,33.0,26.0,29.72,East,90,1.0,2.0,75,0.00,,,0.00,,2013-03-24 15:12:00,
2013-03-24 08:22:00,34.0,27.0,29.72,East,90,0.0,1.0,74,0.00,,,0.00,,2013-03-24 15:22:00,
2013-03-24 08:32:00,36.0,28.0,29.71,ESE,113,0.0,0.0,73,0.00,,,0.00,,2013-03-24 15:32:00,
2013-03-24 08:43:00,36.0,28.0,29.71,ESE,113,0.0,0.0,73,0.00,,,0.00,,2013-03-24 15:43:00,
2013-03-24 08:53:00,37.0,29.0,29.71,North,0,0.0,0.0,72,0.00,,,0.00,,2013-03-24 15:53:00,
2013-03-24 09:02:00,38.0,29.0,29.71,WSW,248,0.0,0.0,70,0.00,,,0.00,,2013-03-24 16:02:00,
2013-03-24 09:12:00,38.0,29.0,29.71,WSW,248,0.0,0.0,70,0.00,,,0.00,,2013-03-24 16:12:00,
2013-03-24 09:22:00,39.0,30.0,29.71,NNW,338,0.0,0.0,70,0.00,,,0.00,,2013-03-24 16:22:00,
2013-03-24 09:32:00,41.0,32.0,29.70,NW,315,0.0,0.0,69,0.00,,,0.00,,2013-03-24 16:32:00,
2013-03-24 09:52:00,42.0,30.0,29.70,WNW,293,1.0,1.0,61,0.00,,,0.00,,2013-03-24 16:52:00,
2013-03-24 10:02:00,42.0,29.0,29.70,NNW,338,1.0,2.0,59,0.00,,,0.00,,2013-03-24 17:02:00,
2013-03-24 10:22:00,43.0,29.0,29.71,West,270,1.0,2.0,58,0.00,,,0.00,,2013-03-24 17:22:00,
2013-03-24 10:32:00,44.0,30.0,29.70,SW,225,1.0,1.0,57,0.00,,,0.00,,2013-03-24 17:32:00,
2013-03-24 11:02:00,44.0,29.0,29.70,WNW,293,1.0,2.0,55,0.00,,,0.00,,2013-03-24 18:02:00,
2013-03-24 11:12:00,44.0,29.0,29.70,WNW,293,1.0,2.0,55,0.00,,,0.00,,2013-03-24 18:12:00,
2013-03-24 11:22:00,45.0,28.0,29.70,WNW,293,1.0,2.0,52,0.00,,,0.00,,2013-03-24 18:22:00,
2013-03-24 11:32:00,45.0,29.0,29.70,WSW,248,1.0,1.0,53,0.00,,,0.00,,2013-03-24 18:32:00,
2013-03-24 11:42:00,45.0,29.0,29.70,WSW,248,1.0,1.0,53,0.00,,,0.00,,2013-03-24 18:42:00,
2013-03-24 11:52:00,46.0,29.0,29.71,North,0,1.0,2.0,52,0.00,,,0.00,,2013-03-24 18:52:00,
2013-03-24 12:02:00,46.0,29.0,29.70,NNE,23,1.0,3.0,51,0.00,,,0.00,,2013-03-24 19:02:00,
2013-03-24 12:11:00,46.0,29.0,29.70,NNE,23,1.0,3.0,51,0.00,,,0.00,,2013-03-24 19:11:00,
2013-03-24 12:22:00,46.0,29.0,29.70,NNW,338,1.0,2.0,51,0.00,,,0.00,,2013-03-24 19:22:00,
2013-03-24 12:31:00,47.0,28.0,29.70,NW,315,1.0,1.0,47,0.00,,,0.00,,2013-03-24 19:31:00,
2013-03-24 12:42:00,47.0,28.0,29.70,NW,315,1.0,1.0,47,0.00,,,0.00,,2013-03-24 19:42:00,
2013-03-24 12:53:00,48.0,26.0,29.69,NW,315,2.0,4.0,42,0.00,,,0.00,,2013-03-24 19:53:00,
2013-03-24 13:02:00,49.0,26.0,29.68,West,270,2.0,3.0,41,0.00,,,0.00,,2013-03-24 20:02:00,
2013-03-24 13:12:00,49.0,26.0,29.68,West,270,2.0,3.0,41,0.00,,,0.00,,2013-03-24 20:12:00,
2013-03-24 13:22:00,51.0,28.0,29.68,NNW,338,1.0,2.0,41,0.00,,,0.00,,2013-03-24 20:22:00,
2013-03-24 13:31:00,51.0,29.0,29.68,West,270,2.0,2.0,42,0.00,,,0.00,,2013-03-24 20:31:00,
2013-03-24 13:42:00,51.0,29.0,29.68,West,270,2.0,2.0,42,0.00,,,0.00,,2013-03-24 20:42:00,
2013-03-24 13:53:00,51.0,29.0,29.67,NE,45,1.0,3.0,43,0.00,,,0.00,,2013-03-24 20:53:00,
2013-03-24 14:02:00,51.0,28.0,29.67,West,270,2.0,2.0,41,0.00,,,0.00,,2013-03-24 21:02:00,
2013-03-24 14:11:00,51.0,28.0,29.67,West,270,2.0,2.0,41,0.00,,,0.00,,2013-03-24 21:11:00,
2013-03-24 14:22:00,52.0,28.0,29.65,NW,315,1.0,2.0,40,0.00,,,0.00,,2013-03-24 21:22:00,
2013-03-24 14:32:00,53.0,29.0,29.65,WNW,293,1.0,2.0,39,0.00,,,0.00,,2013-03-24 21:32:00,
2013-03-24 14:42:00,53.0,29.0,29.65,WNW,293,1.0,2.0,39,0.00,,,0.00,,2013-03-24 21:42:00,
2013-03-24 14:53:00,54.0,28.0,29.67,SSE,158,1.0,4.0,37,0.00,,,0.00,,2013-03-24 21:53:00,
2013-03-24 15:02:00,56.0,28.0,29.65,West,270,1.0,2.0,34,0.00,,,0.00,,2013-03-24 22:02:00,
2013-03-24 15:22:00,56.0,27.0,29.66,SW,225,1.0,4.0,33,0.00,,,0.00,,2013-03-24 22:22:00,
2013-03-24 15:32:00,57.0,28.0,29.65,ENE,68,2.0,4.0,33,0.00,,,0.00,,2013-03-24 22:32:00,
2013-03-24 15:42:00,57.0,28.0,29.65,ENE,68,2.0,4.0,33,0.00,,,0.00,,2013-03-24 22:42:00,
2013-03-24 15:52:00,57.0,27.0,29.65,WSW,248,1.0,3.0,32,0.00,,,0.00,,2013-03-24 22:52:00,
2013-03-24 16:02:00,58.0,28.0,29.63,West,270,2.0,3.0,31,0.00,,,0.00,,2013-03-24 23:02:00,
2013-03-24 16:11:00,58.0,28.0,29.63,West,270,2.0,3.0,31,0.00,,,0.00,,2013-03-24 23:11:00,
2013-03-24 16:22:00,58.0,28.0,29.63,West,270,0.0,2.0,31,0.00,,,0.00,,2013-03-24 23:22:00,
2013-03-24 16:32:00,59.0,28.0,29.62,NNE,23,1.0,3.0,30,0.00,,,0.00,,2013-03-24 23:32:00,
2013-03-24 16:42:00,59.0,28.0,29.62,NNE,23,1.0,3.0,30,0.00,,,0.00,,2013-03-24 23:42:00,
2013-03-24 16:52:00,58.0,27.0,29.62,West,270,2.0,5.0,30,0.00,,,0.00,,2013-03-24 23:52:00,
2013-03-24 17:02:00,59.0,28.0,29.62,SSW,203,1.0,3.0,30,0.00,,,0.00,,2013-03-25 00:02:00,
2013-03-24 17:11:00,59.0,28.0,29.62,SSW,203,1.0,3.0,30,0.00,,,0.00,,2013-03-25 00:11:00,
2013-03-24 17:22:00,56.0,25.0,29.61,NE,45,2.0,4.0,30,0.00,,,0.00,,2013-03-25 00:22:00,
2013-03-24 17:32:00,57.0,26.0,29.61,SW,225,1.0,3.0,30,0.00,,,0.00,,2013-03-25 00:32:00,
2013-03-24 17:42:00,57.0,26.0,29.61,SW,225,1.0,3.0,30,0.00,,,0.00,,2013-03-25 00:42:00,
2013-03-24 17:52:00,55.0,26.0,29.61,WSW,248,2.0,3.0,32,0.00,,,0.00,,2013-03-25 00:52:00,
2013-03-24 18:01:00,55.0,26.0,29.60,NW,315,1.0,3.0,33,0.00,,,0.00,,2013-03-25 01:01:00,
2013-03-24 18:11:00,55.0,26.0,29.60,NW,315,1.0,3.0,33,0.00,,,0.00,,2013-03-25 01:11:00,
2013-03-24 18:21:00,54.0,27.0,29.60,WSW,248,2.0,3.0,35,0.00,,,0.00,,2013-03-25 01:21:00,
2013-03-24 18:32:00,54.0,27.0,29.60,NW,315,1.0,2.0,35,0.00,,,0.00,,2013-03-25 01:32:00,
2013-03-24 18:42:00,54.0,27.0,29.60,NW,315,1.0,2.0,35,0.00,,,0.00,,2013-03-25 01:42:00,
2013-03-24 18:52:00,53.0,26.0,29.60,North,0,1.0,2.0,35,0.00,,,0.00,,2013-03-25 01:52:00,
2013-03-24 19:01:00,52.0,25.0,29.60,WNW,293,1.0,2.0,35,0.00,,,0.00,,2013-03-25 02:01:00,
2013-03-24 19:11:00,52.0,25.0,29.60,WNW,293,1.0,2.0,35,0.00,,,0.00,,2013-03-25 02:11:00,
2013-03-24 19:21:00,51.0,26.0,29.59,WNW,293,0.0,0.0,37,0.00,,,0.00,,2013-03-25 02:21:00,
2013-03-24 19:31:00,50.0,25.0,29.59,NNE,23,0.0,0.0,38,0.00,,,0.00,,2013-03-25 02:31:00,
2013-03-24 19:42:00,50.0,25.0,29.59,NNE,23,0.0,0.0,38,0.00,,,0.00,,2013-03-25 02:42:00,
2013-03-24 19:52:00,49.0,26.0,29.59,ENE,68,0.0,0.0,40,0.00,,,0.00,,2013-03-25 02:52:00,
2013-03-24 20:01:00,48.0,27.0,29.59,East,90,0.0,1.0,43,0.00,,,0.00,,2013-03-25 03:01:00,
2013-03-24 20:12:00,48.0,27.0,29.59,East,90,0.0,1.0,43,0.00,,,0.00,,2013-03-25 03:12:00,
2013-03-24 20:22:00,47.0,27.0,29.58,East,90,0.0,0.0,45,0.00,,,0.00,,2013-03-25 03:22:00,
2013-03-24 20:32:00,46.0,27.0,29.58,East,90,0.0,1.0,47,0.00,,,0.00,,2013-03-25 03:32:00,
2013-03-24 20:42:00,46.0,27.0,29.59,East,90,1.0,2.0,48,0.00,,,0.00,,2013-03-25 03:42:00,
2013-03-24 20:53:00,46.0,27.0,29.59,East,90,1.0,2.0,48,0.00,,,0.00,,2013-03-25 03:53:00,
2013-03-24 21:02:00,46.0,28.0,29.59,East,90,1.0,1.0,49,0.00,,,0.00,,2013-03-25 04:02:00,
2013-03-24 21:12:00,46.0,28.0,29.59,East,90,1.0,1.0,49,0.00,,,0.00,,2013-03-25 04:12:00,
2013-03-24 21:22:00,46.0,28.0,29.58,ESE,113,1.0,2.0,50,0.00,,,0.00,,2013-03-25 04:22:00,
2013-03-24 21:32:00,46.0,29.0,29.58,East,90,1.0,3.0,51,0.00,,,0.00,,2013-03-25 04:32:00,
2013-03-24 21:42:00,46.0,29.0,29.58,East,90,1.0,3.0,51,0.00,,,0.00,,2013-03-25 04:42:00,
2013-03-24 21:52:00,45.0,28.0,29.58,ESE,113,1.0,2.0,52,0.00,,,0.00,,2013-03-25 04:52:00,
2013-03-24 22:02:00,45.0,28.0,29.59,East,90,0.0,1.0,51,0.00,,,0.00,,2013-03-25 05:02:00,
2013-03-24 22:12:00,45.0,28.0,29.59,East,90,0.0,1.0,51,0.00,,,0.00,,2013-03-25 05:12:00,
2013-03-24 22:22:00,44.0,27.0,29.59,ESE,113,2.0,2.0,51,0.00,,,0.00,,2013-03-25 05:22:00,
2013-03-24 22:32:00,45.0,28.0,29.59,ESE,113,1.0,2.0,52,0.00,,,0.00,,2013-03-25 05:32:00,
2013-03-24 22:42:00,45.0,28.0,29.59,ESE,113,1.0,2.0,52,0.00,,,0.00,,2013-03-25 05:42:00,
2013-03-24 22:52:00,45.0,28.0,29.59,East,90,1.0,1.0,52,0.00,,,0.00,,2013-03-25 05:52:00,
2013-03-24 23:01:00,45.0,28.0,29.59,East,90,0.0,1.0,51,0.00,,,0.00,,2013-03-25 06:01:00,
2013-03-24 23:11:00,45.0,28.0,29.59,East,90,0.0,1.0,51,0.00,,,0.00,,2013-03-25 06:11:00,
2013-03-24 23:21:00,44.0,28.0,29.58,East,90,0.0,0.0,53,0.00,,,0.00,,2013-03-25 06:21:00,
2013-03-24 23:32:00,44.0,28.0,29.59,ESE,113,0.0,0.0,52,0.00,,,0.00,,2013-03-25 06:32:00,
2013-03-24 23:42:00,44.0,28.0,29.59,ESE,113,0.0,0.0,52,0.00,,,0.00,,2013-03-25 06:42:00,
2013-03-24 23:52:00,44.0,28.0,29.59,ESE,113,0.0,1.0,52,0.00,,,0.00,,2013-03-25 06:52:00,